N4HAC Weather Reports


time (UTC)temp
C
wind
direction
speed
KPH
gust
KPH
rain 1hr
cm
rain 24hr
cm
rain mn
cm
humidity
%
barometer
mb
20260507201438 16 135 16.1 24.1 0.00 0.00 0.00 62 1003.4
20260507200936 16 135 17.7 25.7 0.00 0.00 0.00 62 1003.2
20260507200431 16 153 12.9 30.6 0.00 0.00 0.00 64 1003.2
20260507195927 17 54 11.3 17.7 0.00 0.00 0.00 62 1003.2
20260507195425 17 134 17.7 17.7 0.00 0.00 0.00 62 1003.4
20260507194922 16 130 11.3 24.1 0.00 0.00 0.00 61 1003.3
20260507194418 16 141 3.2 14.5 0.00 0.00 0.00 64 1003.5
20260507193915 16 129 17.7 27.4 0.00 0.00 0.00 61 1003.5
20260507193412 17 70 8.0 24.1 0.00 0.00 0.00 61 1003.8
20260507192908 17 58 6.4 19.3 0.00 0.00 0.00 59 1003.8
20260507192404 17 159 12.9 16.1 0.00 0.00 0.00 52 1003.6
20260507191901 17 140 17.7 20.9 0.00 0.00 0.00 58 1003.4
20260507191357 17 115 8.0 12.9 0.00 0.00 0.00 56 1003.7
20260507190854 16 56 9.7 12.9 0.00 0.00 0.00 53 1003.6
20260507190352 16 56 6.4 12.9 0.00 0.00 0.00 50 1003.7
20260507185851 16 47 12.9 14.5 0.00 0.00 0.00 51 1003.8
20260507185348 16 22 9.7 17.7 0.00 0.00 0.00 48 1003.7
20260507184845 16 81 3.2 12.9 0.00 0.00 0.00 52 1003.9
20260507184343 16 59 8.0 16.1 0.00 0.00 0.00 49 1003.9
20260507183839 17 35 12.9 20.9 0.00 0.00 0.00 51 1003.8
20260507183336 18 51 12.9 24.1 0.00 0.00 0.00 50 1003.9
20260507182834 17 191 8.0 16.1 0.00 0.00 0.00 52 1003.9
20260507182329 18 181 4.8 9.7 0.00 0.00 0.00 53 1004.1
20260507181826 17 162 14.5 17.7 0.00 0.00 0.00 45 1004.4
20260507181322 17 174 4.8 8.0 0.00 0.00 0.00 50 1004.1
20260507180819 17 186 3.2 24.1 0.00 0.00 0.00 48 1004.1
20260507180316 17 230 11.3 14.5 0.00 0.00 0.00 54 1004.0
20260507175811 17 166 14.5 14.5 0.00 0.00 0.00 48 1004.3
20260507175308 16 192 12.9 24.1 0.00 0.00 0.00 55 1004.3
20260507174806 17 194 22.5 24.1 0.00 0.00 0.00 47 1004.3
20260507174304 17 54 9.7 14.5 0.00 0.00 0.00 48 1004.4
20260507173801 17 193 12.9 17.7 0.00 0.00 0.00 48 1004.7
20260507173258 17 307 1.6 4.8 0.00 0.00 0.00 53 1004.8
20260507172754 16 239 12.9 25.7 0.00 0.00 0.00 49 1004.8
20260507172251 16 205 4.8 6.4 0.00 0.00 0.00 47 1004.5
20260507171746 16 266 12.9 14.5 0.00 0.00 0.00 51 1005.0
20260507171244 16 217 27.4 29.0 0.00 0.00 0.00 51 1004.8
20260507170741 16 216 14.5 22.5 0.00 0.00 0.00 48 1004.9
20260507170237 17 171 6.4 16.1 0.00 0.00 0.00 56 1005.3
20260507165733 16 328 9.7 14.5 0.00 0.00 0.00 48 1005.3
20260507165229 16 157 4.8 14.5 0.00 0.00 0.00 47 1005.4
20260507164726 17 222 14.5 16.1 0.00 0.00 0.00 47 1005.6
20260507164223 16 302 3.2 9.7 0.00 0.00 0.00 59 1005.6
20260507163720 15 191 4.8 17.7 0.00 0.00 0.00 52 1005.8
20260507163218 15 328 6.4 22.5 0.00 0.00 0.00 51 1006.0
20260507162713 15 110 0.0 8.0 0.00 0.00 0.00 54 1005.9
20260507162210 15 53 8.0 19.3 0.00 0.00 0.00 51 1006.0
20260507161706 15 19 9.7 14.5 0.00 0.00 0.00 59 1006.0
20260507161203 15 28 8.0 19.3 0.00 0.00 0.00 53 1006.1
20260507160659 14 173 4.8 8.0 0.00 0.00 0.00 54 1006.2
20260507160156 14 248 9.7 12.9 0.00 0.00 0.00 54 1006.2
20260507155651 14 310 9.7 16.1 0.00 0.00 0.00 51 1006.4
20260507155148 15 38 0.0 6.4 0.00 0.00 0.00 53 1006.4
20260507154644 14 303 4.8 8.0 0.00 0.00 0.00 56 1006.2
20260507154142 13 339 8.0 16.1 0.00 0.00 0.00 53 1006.2
20260507153638 13 23 4.8 16.1 0.00 0.00 0.00 51 1006.3
20260507153135 13 28 8.0 8.0 0.00 0.00 0.00 53 1006.7
20260507152631 13 349 6.4 16.1 0.00 0.00 0.00 55 1006.4
20260507152127 13 355 6.4 9.7 0.00 0.00 0.00 55 1006.7
20260507151623 13 350 8.0 17.7 0.00 0.00 0.00 55 1006.6
20260507151121 13 294 8.0 8.0 0.00 0.00 0.00 61 1006.8
20260507150618 13 280 11.3 14.5 0.00 0.00 0.00 57 1006.8
20260507150115 13 317 8.0 12.9 0.00 0.00 0.00 55 1006.9
20260507145615 13 279 3.2 8.0 0.00 0.00 0.00 57 1007.0
20260507145113 13 10 11.3 14.5 0.00 0.00 0.00 60 1007.1
20260507144614 12 333 8.0 12.9 0.00 0.00 0.00 56 1007.2
20260507144113 12 286 6.4 11.3 0.00 0.00 0.00 56 1007.3
20260507143608 12 340 6.4 9.7 0.00 0.00 0.00 54 1007.3
20260507143106 12 3 3.2 8.0 0.00 0.00 0.00 57 1007.3
20260507142601 12 273 3.2 14.5 0.00 0.00 0.00 55 1007.4
20260507142058 12 10 3.2 14.5 0.00 0.00 0.00 57 1007.4
20260507141554 12 357 9.7 14.5 0.00 0.00 0.00 57 1007.5
20260507141051 12 329 4.8 9.7 0.00 0.00 0.00 57 1007.4
20260507140548 12 354 11.3 16.1 0.00 0.00 0.00 56 1007.3
20260507140045 12 345 11.3 17.7 0.00 0.00 0.00 56 1007.4
20260507135542 12 328 14.5 19.3 0.00 0.00 0.00 57 1007.4
20260507135040 12 285 6.4 14.5 0.00 0.00 0.00 60 1007.6
20260507134536 12 317 14.5 17.7 0.00 0.00 0.00 57 1007.7
20260507134032 12 2 11.3 16.1 0.00 0.00 0.00 59 1007.6
20260507133528 12 355 9.7 14.5 0.00 0.00 0.00 61 1007.8
20260507133026 12 245 6.4 9.7 0.00 0.00 0.00 63 1008.0
20260507132522 11 334 6.4 9.7 0.00 0.00 0.00 63 1007.9
20260507132019 11 355 14.5 16.1 0.00 0.00 0.00 62 1007.9
20260507131516 11 350 9.7 9.7 0.00 0.00 0.00 63 1007.9
20260507131013 11 319 4.8 8.0 0.00 0.00 0.00 68 1007.9
20260507130510 11 296 14.5 24.1 0.00 0.00 0.00 65 1007.9
20260507130008 11 342 3.2 11.3 0.00 0.00 0.00 72 1007.7
20260507125506 11 308 8.0 17.7 0.00 0.00 0.00 69 1007.6
20260507125003 11 299 11.3 16.1 0.00 0.00 0.00 70 1007.6
20260507124459 11 336 14.5 19.3 0.00 0.00 0.00 70 1007.6
20260507123958 11 321 9.7 12.9 0.00 0.00 0.00 70 1007.7
20260507123455 11 348 12.9 14.5 0.00 0.00 0.00 71 1007.6
20260507122951 11 305 12.9 16.1 0.00 0.00 0.00 71 1007.8
20260507122447 11 337 11.3 17.7 0.00 0.00 0.00 71 1007.7
20260507121943 11 329 14.5 14.5 0.00 0.00 0.00 72 1007.6
20260507121438 11 343 9.7 16.1 0.00 0.00 0.00 71 1007.4
20260507120935 11 358 12.9 14.5 0.00 0.00 0.00 72 1007.6
20260507120432 11 356 12.9 22.5 0.00 0.00 0.00 73 1007.3
20260507115928 11 4 14.5 19.3 0.00 0.00 0.00 73 1007.6
20260507115424 11 348 14.5 16.1 0.00 0.00 0.00 75 1007.5
20260507114920 11 339 14.5 20.9 0.00 0.00 0.00 73 1007.5
20260507114417 11 350 11.3 19.3 0.00 0.00 0.00 76 1007.3
20260507113914 11 338 12.9 16.1 0.00 0.00 0.00 76 1007.4
20260507113411 11 320 8.0 14.5 0.00 0.00 0.00 78 1007.3
20260507112908 11 328 9.7 17.7 0.00 0.00 0.00 78 1007.3
20260507112406 11 317 6.4 11.3 0.00 0.00 0.00 80 1007.0
20260507111904 11 328 9.7 16.1 0.00 0.00 0.00 81 1006.8
20260507111400 11 348 8.0 12.9 0.00 0.00 0.00 81 1007.1
20260507110856 11 305 8.0 14.5 0.00 0.00 0.00 80 1007.1
20260507110352 11 294 6.4 12.9 0.00 0.00 0.00 79 1006.7
20260507105849 11 318 3.2 9.7 0.00 0.00 0.00 79 1006.8
20260507105346 11 343 4.8 6.4 0.00 0.00 0.00 80 1006.8
20260507104843 11 295 3.2 12.9 0.00 0.00 0.00 81 1006.7
20260507104339 11 279 11.3 12.9 0.00 0.00 0.00 82 1006.7
20260507103835 11 72 1.6 9.7 0.00 0.00 0.00 83 1006.8
20260507103332 12 280 3.2 9.7 0.00 0.00 0.00 82 1006.7
20260507102828 12 288 4.8 8.0 0.00 0.00 0.00 82 1006.5
20260507102325 12 256 6.4 9.7 0.00 0.00 0.00 82 1006.6
20260507101821 12 267 6.4 9.7 0.00 0.00 0.00 81 1006.8
20260507101316 12 257 6.4 9.7 0.00 0.00 0.00 81 1006.5
20260507100813 12 299 6.4 12.9 0.00 0.00 0.00 81 1006.5
20260507100311 12 281 8.0 11.3 0.00 0.00 0.00 80 1006.8
20260507095809 12 287 9.7 11.3 0.00 0.00 0.00 80 1006.5
20260507095306 12 310 4.8 6.4 0.00 0.00 0.00 80 1006.4
20260507094802 12 315 4.8 8.0 0.00 0.00 0.00 80 1006.4
20260507094259 12 332 1.6 6.4 0.00 0.00 0.00 80 1006.3
20260507093756 12 344 8.0 8.0 0.00 0.00 0.00 80 1006.4
20260507093255 12 317 3.2 9.7 0.00 0.00 0.00 80 1006.5
20260507092752 12 8 6.4 9.7 0.00 0.00 0.00 80 1006.4
20260507092248 12 337 8.0 11.3 0.00 0.00 0.00 79 1006.4
20260507091745 12 323 6.4 11.3 0.00 0.00 0.00 81 1006.4
20260507091241 12 334 9.7 11.3 0.00 0.00 0.00 80 1006.2
20260507090736 12 298 8.0 8.0 0.00 0.00 0.00 81 1006.4
20260507090233 12 316 3.2 9.7 0.00 0.00 0.00 80 1005.9
20260507085731 12 2 6.4 14.5 0.00 0.00 0.00 79 1005.6
20260507085227 12 348 8.0 22.5 0.00 0.00 0.00 80 1005.8
20260507084725 12 256 3.2 8.0 0.00 0.00 0.00 81 1006.1
20260507084221 12 326 3.2 8.0 0.00 0.00 0.00 81 1005.9
20260507083719 12 254 0.0 4.8 0.00 0.00 0.00 83 1006.2
20260507083215 12 260 3.2 4.8 0.00 0.00 0.00 84 1006.3
20260507082711 12 235 4.8 9.7 0.00 0.00 0.00 84 1006.3
20260507082207 12 244 6.4 9.7 0.00 0.00 0.00 83 1006.2
20260507081704 12 288 1.6 4.8 0.00 0.00 0.00 83 1006.0
20260507081200 12 264 3.2 6.4 0.00 0.00 0.00 82 1006.0
20260507080657 12 300 3.2 9.7 0.00 0.00 0.00 82 1006.0
20260507080153 12 321 3.2 4.8 0.00 0.00 0.00 82 1005.9
20260507075648 12 288 4.8 6.4 0.00 0.00 0.00 82 1006.2
20260507075145 12 232 1.6 8.0 0.00 0.00 0.00 82 1005.9
20260507074641 12 265 9.7 19.3 0.00 0.00 0.00 81 1005.8
20260507074140 12 293 6.4 11.3 0.00 0.00 0.00 82 1005.7
20260507073636 12 277 11.3 16.1 0.00 0.00 0.00 82 1005.5
20260507073132 12 311 8.0 16.1 0.00 0.00 0.00 82 1005.5
20260507072630 12 273 11.3 12.9 0.00 0.00 0.00 82 1005.5
20260507072127 12 302 6.4 11.3 0.00 0.00 0.00 83 1005.8
20260507071625 12 235 6.4 9.7 0.00 0.00 0.00 83 1005.6
20260507071121 12 257 8.0 14.5 0.00 0.00 0.00 83 1005.5
20260507070618 12 289 8.0 8.0 0.00 0.00 0.00 84 1005.4
20260507070115 12 295 8.0 9.7 0.00 0.00 0.00 83 1005.5
20260507065611 12 265 6.4 9.7 0.00 0.00 0.00 84 1005.7
20260507065108 12 271 4.8 16.1 0.00 0.00 0.00 84 1005.6
20260507064606 12 198 4.8 9.7 0.00 0.00 0.00 85 1005.7
20260507064104 12 249 6.4 11.3 0.00 0.00 0.00 85 1005.7
20260507063601 12 307 6.4 8.0 0.00 0.00 0.00 86 1005.4
20260507063059 12 267 9.7 14.5 0.00 0.00 0.00 86 1005.5
20260507062555 11 284 11.3 11.3 0.00 0.00 0.00 88 1005.7
20260507062053 12 334 4.8 9.7 0.00 0.00 0.00 88 1005.8
20260507061550 12 288 11.3 16.1 0.00 0.00 0.00 87 1006.0
20260507061048 12 318 6.4 8.0 0.00 0.00 0.00 86 1005.7
20260507060546 12 259 6.4 9.7 0.00 0.00 0.00 85 1006.2
20260507060042 12 261 8.0 11.3 0.00 0.00 0.00 85 1006.3
20260507055542 12 233 9.7 17.7 0.00 0.00 0.00 83 1005.9
20260507055039 12 290 11.3 16.1 0.00 0.00 0.00 84 1005.6
20260507054535 13 266 6.4 11.3 0.00 0.00 0.00 85 1005.5
20260507054032 13 263 4.8 12.9 0.00 0.00 0.00 85 1005.6
20260507053530 13 248 4.8 11.3 0.00 0.00 0.00 86 1005.8
20260507053029 13 311 8.0 16.1 0.00 0.00 0.00 86 1005.6
20260507052526 13 275 11.3 14.5 0.05 0.00 0.00 87 1005.7
20260507052022 13 332 3.2 14.5 0.05 0.00 0.00 88 1005.7
20260507051520 13 309 12.9 19.3 0.00 0.00 0.00 88 1005.8
20260507051017 13 308 9.7 20.9 0.00 0.00 0.00 88 1005.6
20260507050513 13 298 6.4 8.0 0.00 0.00 0.00 88 1005.6
20260507050010 13 284 4.8 8.0 0.00 0.00 0.00 86 1005.6
20260507045507 13 268 9.7 19.3 0.00 0.00 0.00 87 1005.7
20260507045004 13 258 8.0 11.3 0.00 0.00 0.00 88 1005.5
20260507044501 13 247 9.7 9.7 0.00 0.00 0.00 89 1005.4
20260507043957 13 44 9.7 11.3 0.00 0.00 0.00 87 1004.5
20260507043453 13 322 4.8 12.9 0.00 0.00 0.00 88 1005.0
20260507042950 13 289 4.8 12.9 0.00 0.00 0.00 88 1005.2
20260507042446 13 300 9.7 14.5 0.00 0.00 0.00 88 1005.5
20260507041942 13 326 11.3 11.3 0.00 0.00 0.00 88 1005.1
20260507041439 13 290 3.2 4.8 0.00 0.00 0.00 88 1005.4
20260507040936 14 182 1.6 6.4 0.00 0.00 0.00 88 1005.1
20260507040432 14 331 0.0 9.7 0.00 0.00 0.00 86 1005.3
20260507035928 14 227 6.4 11.3 0.00 0.71 0.71 87 1005.5
20260507035425 14 250 3.2 6.4 0.00 0.71 0.71 89 1005.7
20260507034921 14 292 4.8 14.5 0.00 0.71 0.71 88 1005.7
20260507034418 14 232 8.0 8.0 0.00 0.71 0.71 88 1005.8
20260507033916 14 243 11.3 14.5 0.00 0.71 0.71 88 1005.9
20260507033414 14 232 6.4 9.7 0.00 0.71 0.71 88 1005.2
20260507032911 14 204 3.2 6.4 0.00 0.71 0.71 88 1005.0
20260507032408 14 302 3.2 8.0 0.00 0.71 0.71 88 1004.8
20260507031904 14 286 6.4 6.4 0.00 0.71 0.71 88 1005.1
20260507031400 15 286 3.2 6.4 0.00 0.71 0.71 89 1005.3
20260507030857 15 257 6.4 8.0 0.00 0.71 0.71 89 1005.3
20260507030354 15 245 6.4 12.9 0.00 0.71 0.71 89 1005.1
20260507025851 14 300 8.0 19.3 0.00 0.71 0.71 92 1004.7
20260507025349 15 231 3.2 4.8 0.00 0.71 0.71 95 1005.0
20260507024846 15 252 3.2 8.0 0.00 0.71 0.71 94 1005.3
20260507024343 15 258 8.0 11.3 0.00 0.71 0.71 94 1005.1
20260507023839 15 345 3.2 11.3 0.00 0.71 0.71 94 1004.7
20260507023336 15 223 8.0 9.7 0.13 0.71 0.71 93 1004.6
20260507022834 15 267 4.8 8.0 0.23 0.71 0.71 91 1004.7
20260507022330 15 4 12.9 12.9 0.13 0.69 0.69 89 1004.7
20260507021826 16 228 14.5 17.7 0.00 0.66 0.66 86 1004.5
20260507021321 16 313 6.4 9.7 0.00 0.66 0.66 89 1004.5
20260507020820 16 232 3.2 8.0 0.00 0.66 0.66 94 1004.7
20260507020316 16 349 3.2 6.4 0.00 0.66 0.66 94 1004.6
20260507015813 16 300 3.2 8.0 0.00 0.66 0.66 95 1004.5
20260507015311 16 265 4.8 4.8 0.00 0.66 0.66 96 1004.5
20260507014808 16 306 1.6 3.2 0.00 0.66 0.66 97 1004.3
20260507014304 16 349 3.2 4.8 0.00 0.66 0.66 97 1004.1
20260507013800 16 325 0.0 3.2 0.00 0.66 0.66 96 1004.1
20260507013258 16 327 1.6 3.2 0.00 0.66 0.66 95 1004.3
20260507012755 16 40 3.2 6.4 0.00 0.66 0.66 93 1003.9
20260507012250 16 238 0.0 4.8 0.00 0.66 0.66 92 1004.4
20260507011748 16 316 1.6 4.8 0.00 0.66 0.66 92 1004.2
20260507011245 16 287 3.2 6.4 0.00 0.66 0.66 92 1004.3
20260507010744 17 298 0.0 4.8 0.00 0.66 0.66 92 1004.4
20260507010240 17 278 4.8 8.0 0.00 0.66 0.66 92 1004.6
20260507005738 17 283 4.8 8.0 0.00 0.66 0.66 92 1004.5
20260507005234 17 0 9.7 11.3 0.00 0.66 0.66 93 1004.3
20260507004731 17 349 4.8 9.7 0.00 0.66 0.66 94 1004.4
20260507004229 17 331 3.2 9.7 0.00 0.66 0.66 96 1004.6
20260507003725 17 304 8.0 11.3 0.00 0.66 0.66 98 1004.4
20260507003220 17 226 4.8 6.4 0.00 0.66 0.66 98 1004.2
20260507002716 17 302 3.2 4.8 0.00 0.66 0.66 98 1004.1
20260507002213 17 272 6.4 8.0 0.00 0.66 0.66 98 1004.1
20260507001709 17 273 3.2 8.0 0.00 0.66 0.66 99 1004.2
20260507001207 17 312 4.8 9.7 0.00 0.66 0.66 99 1004.0
20260507000703 17 23 8.0 9.7 0.00 0.66 0.66 99 1003.7
20260507000159 17 323 3.2 4.8 0.05 0.66 0.66 99 1004.0
20260506235656 17 289 4.8 8.0 0.05 0.66 0.66 99 1004.1
20260506235151 17 186 3.2 4.8 0.05 0.66 0.66 99 1004.1
20260506234648 17 298 0.0 3.2 0.13 0.66 0.66 99 1003.6
20260506234145 17 297 1.6 4.8 0.05 0.66 0.66 99 1003.4
20260506233642 17 280 1.6 3.2 0.00 0.64 0.64 99 1003.4
20260506233139 17 264 3.2 3.2 0.00 0.64 0.64 99 1003.4
20260506232636 18 351 3.2 3.2 0.18 0.64 0.64 98 1003.3
20260506232131 18 28 3.2 6.4 0.43 0.64 0.64 97 1003.3
20260506231628 18 197 3.2 8.0 0.23 0.61 0.61 97 1003.7
20260506231127 18 292 3.2 8.0 0.48 0.56 0.56 95 1003.0
20260506230623 18 292 3.2 9.7 1.27 0.56 0.56 93 1003.2
20260506230120 19 245 6.4 6.4 0.30 0.41 0.41 89 1003.2
20260506225617 20 236 4.8 6.4 0.00 0.36 0.36 86 1003.2
20260506225113 20 201 3.2 4.8 0.00 0.36 0.36 86 1002.9
20260506224610 20 173 0.0 3.2 0.00 0.36 0.36 86 1002.7
20260506224107 20 150 4.8 6.4 0.00 0.36 0.36 87 1003.1
20260506223603 20 134 6.4 11.3 0.00 0.36 0.36 86 1002.7
20260506223059 20 129 3.2 6.4 0.00 0.36 0.36 86 1002.6
20260506222556 20 152 6.4 9.7 0.00 0.36 0.36 86 1003.0
20260506222052 20 138 8.0 11.3 0.00 0.36 0.36 86 1002.8
20260506221550 20 136 9.7 19.3 0.00 0.36 0.36 85 1002.9
20260506221048 20 138 8.0 14.5 0.00 0.36 0.36 85 1002.8
20260506220544 20 128 8.0 11.3 0.00 0.36 0.36 85 1002.8
20260506220039 20 172 8.0 11.3 0.00 0.36 0.36 85 1002.8
20260506215536 20 124 3.2 9.7 0.00 0.36 0.36 85 1002.7
20260506215032 20 154 11.3 17.7 0.00 0.36 0.36 85 1002.8
20260506214529 20 122 9.7 9.7 0.00 0.36 0.36 85 1002.5
20260506214026 20 148 6.4 12.9 0.00 0.36 0.36 85 1002.6
20260506213525 20 154 11.3 19.3 0.00 0.36 0.36 85 1002.6
20260506213021 20 143 14.5 20.9 0.00 0.36 0.36 85 1002.6
20260506212518 20 111 8.0 17.7 0.00 0.36 0.36 85 1002.6
20260506212013 20 131 17.7 25.7 0.00 0.36 0.36 84 1002.7
20260506211509 20 133 16.1 20.9 0.00 0.36 0.36 84 1002.5
20260506211007 20 136 11.3 14.5 0.00 0.36 0.36 84 1002.7
20260506210502 20 136 9.7 16.1 0.00 0.36 0.36 84 1002.7
20260506205959 20 153 17.7 20.9 0.00 0.36 0.36 85 1002.2
20260506205456 20 155 14.5 17.7 0.00 0.36 0.36 85 1002.5
20260506204952 20 141 12.9 24.1 0.00 0.36 0.36 85 1002.3
20260506204450 20 120 8.0 20.9 0.00 0.36 0.36 85 1002.5
20260506203947 20 138 14.5 19.3 0.00 0.36 0.36 84 1002.3
20260506203444 20 170 8.0 14.5 0.00 0.36 0.36 85 1002.7
20260506202941 20 166 12.9 20.9 0.00 0.36 0.36 84 1002.1
20260506202438 20 143 8.0 19.3 0.00 0.36 0.36 85 1002.3
20260506201934 20 140 16.1 17.7 0.00 0.36 0.36 84 1001.9